Le nostre stazioni meteo in Italia

Pubblicità
Il mio iltempo24.it
Cozzo Spadaro, Italia (16480): Temperatura & dewpoint: 12.01.2020 11:00:00 - 18.01.2020 11:00:00 (CET)Cozzo Spadaro, Italia (16480): velocità del vento: 12.01.2020 11:00:00 - 18.01.2020 11:00:00 (CET)Cozzo Spadaro, Italia (16480): direzione del vento: 12.01.2020 11:00:00 - 18.01.2020 11:00:00 (CET)Cozzo Spadaro, Italia (16480): reduced air pressure: 12.01.2020 11:00:00 - 18.01.2020 11:00:00 (CET)Cozzo Spadaro, Italia (16480): visibility: 12.01.2020 11:00:00 - 18.01.2020 11:00:00 (CET)Cozzo Spadaro, Italia (16480): ore di luce: 12.01.2020 11:00:00 - 18.01.2020 11:00:00 (CET)
Data & Tempo tt [°C] td [°C] ff [km/h] ff [kn] dd ppp [hPa] vv [km] sd [min]
18.01.2020 11:00:00 - - - - - - - -
18.01.2020 10:00:00 15,4 6,9 5 3 ONO 1025,9 25 60
18.01.2020 09:00:00 14,0 7,3 2 1 NO 1025,4 25 60
18.01.2020 08:00:00 11,0 5,5 8 4 NNO 1025,4 25 0
18.01.2020 07:00:00 11,0 6,4 8 4 NNO 1025,4 25 -
18.01.2020 06:00:00 - - - - - - - -
18.01.2020 05:00:00 - - - - - - - -
18.01.2020 04:00:00 - - - - - - - -
18.01.2020 03:00:00 - - - - - - - -
18.01.2020 02:00:00 - - - - - - - -
18.01.2020 01:00:00 - - - - - - - -
18.01.2020 00:00:00 - - - - - - - -
17.01.2020 23:00:00 - - - - - - - -
17.01.2020 22:00:00 - - - - - - - -
17.01.2020 21:00:00 - - - - - - - -
17.01.2020 20:00:00 - - - - - - - -
17.01.2020 19:00:00 12,0 8,3 5 3 SSO 1025,4 18 -
17.01.2020 18:00:00 12,0 7,9 4 2 SSO 1025,3 18 0
17.01.2020 17:00:00 13,0 8,5 4 2 SO 1025,1 20 42
17.01.2020 16:00:00 14,4 9,4 5 3 SO 1025,0 20 60
17.01.2020 15:00:00 15,0 8,7 5 3 SO 1024,7 20 60
17.01.2020 14:00:00 15,2 10,8 8 4 SSE 1025,1 20 48
17.01.2020 13:00:00 13,8 11,1 2 1 ENE 1025,7 18 18
17.01.2020 12:00:00 14,4 11,9 5 3 NE 1026,3 18 48
17.01.2020 11:00:00 14,0 11,7 5 3 ENE 1026,3 18 36
17.01.2020 10:00:00 13,0 11,1 0 0 N 1026,2 18 30
17.01.2020 09:00:00 11,2 9,8 0 0 N 1026,1 15 30
17.01.2020 08:00:00 10,2 8,8 0 0 N 1026,1 15 6
17.01.2020 07:00:00 10,4 9,5 0 0 N 1026,1 15 0
17.01.2020 06:00:00 - - - - - - - -
17.01.2020 05:00:00 - - - - - - - -
17.01.2020 04:00:00 - - - - - - - -
17.01.2020 03:00:00 - - - - - - - -
17.01.2020 02:00:00 - - - - - - - -
17.01.2020 01:00:00 - - - - - - - -
17.01.2020 00:00:00 - - - - - - - -
16.01.2020 23:00:00 - - - - - - - -
16.01.2020 22:00:00 - - - - - - - -
16.01.2020 21:00:00 - - - - - - - -
16.01.2020 20:00:00 - - - - - - - -
16.01.2020 19:00:00 11,0 9,2 2 1 O 1026,3 18 -
16.01.2020 18:00:00 11,6 8,6 4 2 O 1026,2 20 0
16.01.2020 17:00:00 13,8 9,2 4 2 O 1026,2 20 30
16.01.2020 16:00:00 15,0 10,2 5 3 SO 1026,2 25 60
16.01.2020 15:00:00 15,4 10,8 8 4 S 1026,7 25 60
16.01.2020 14:00:00 16,0 11,6 5 3 SSE 1027,0 25 60
16.01.2020 13:00:00 15,8 11,4 8 4 E 1027,3 25 60
16.01.2020 12:00:00 15,8 11,0 9 5 ENE 1027,6 25 60
16.01.2020 11:00:00 15,2 9,5 11 6 NNE 1028,2 25 60
16.01.2020 10:00:00 14,0 8,6 8 4 N 1027,7 25 60
16.01.2020 09:00:00 12,0 9,4 8 4 N 1027,4 25 60
16.01.2020 08:00:00 10,4 8,2 5 3 NNO 1027,3 20 18
16.01.2020 07:00:00 9,4 9,1 4 2 N 1027,3 20 0
16.01.2020 06:00:00 - - - - - - - -
16.01.2020 05:00:00 - - - - - - - -
16.01.2020 04:00:00 - - - - - - - -
16.01.2020 03:00:00 - - - - - - - -
16.01.2020 02:00:00 - - - - - - - -
16.01.2020 01:00:00 - - - - - - - -
16.01.2020 00:00:00 - - - - - - - -
15.01.2020 23:00:00 - - - - - - - -
15.01.2020 22:00:00 - - - - - - - -
15.01.2020 21:00:00 - - - - - - - -
15.01.2020 20:00:00 - - - - - - - -
15.01.2020 19:00:00 12,8 10,7 11 6 NE 1027,2 20 -
15.01.2020 18:00:00 13,0 10,9 13 7 ENE 1026,6 20 -
15.01.2020 17:00:00 13,4 11,1 16 9 ENE 1026,2 25 0
15.01.2020 16:00:00 14,4 11,5 16 9 ENE 1026,2 25 60
15.01.2020 15:00:00 15,4 11,4 18 10 ENE 1026,2 25 60
15.01.2020 14:00:00 15,0 11,0 18 10 NE 1026,2 25 60
15.01.2020 13:00:00 15,0 11,4 21 11 NE 1026,6 25 60
15.01.2020 12:00:00 15,0 11,8 21 11 NE 1026,9 25 60
15.01.2020 11:00:00 14,8 11,8 24 13 NE 1027,0 25 60
15.01.2020 10:00:00 14,4 10,2 18 10 NE 1026,7 25 60
15.01.2020 09:00:00 14,0 10,2 18 10 NE 1026,2 25 54
15.01.2020 08:00:00 12,0 9,0 16 9 NNE 1026,3 20 0
15.01.2020 07:00:00 12,4 8,9 22 12 NNE 1025,9 20 0
15.01.2020 06:00:00 - - - - - - - -
15.01.2020 05:00:00 - - - - - - - -
15.01.2020 04:00:00 - - - - - - - -
15.01.2020 03:00:00 - - - - - - - -
15.01.2020 02:00:00 - - - - - - - -
15.01.2020 01:00:00 - - - - - - - -
15.01.2020 00:00:00 - - - - - - - -
14.01.2020 23:00:00 - - - - - - - -
14.01.2020 22:00:00 - - - - - - - -
14.01.2020 21:00:00 - - - - - - - -
14.01.2020 20:00:00 - - - - - - - -
14.01.2020 19:00:00 13,4 10,0 16 9 ENE 1025,1 25 -
14.01.2020 18:00:00 13,4 9,5 16 9 ENE 1024,2 25 -
14.01.2020 17:00:00 13,6 9,5 15 8 ENE 1024,0 25 30
14.01.2020 16:00:00 14,4 9,2 16 9 ENE 1023,8 25 60
14.01.2020 15:00:00 15,0 9,8 16 9 ENE 1023,8 25 60
14.01.2020 14:00:00 15,0 10,0 18 10 ENE 1023,9 25 60
14.01.2020 13:00:00 15,2 10,6 21 11 ENE 1024,2 25 60
14.01.2020 12:00:00 15,2 10,8 18 10 ENE 1024,5 25 60
14.01.2020 11:00:00 15,0 10,8 18 10 NE 1024,5 25 60
14.01.2020 10:00:00 14,6 11,0 18 10 NE 1024,2 25 60
14.01.2020 09:00:00 13,8 10,8 18 10 NE 1023,7 25 60
14.01.2020 08:00:00 12,8 10,5 21 11 NE 1023,5 20 0
14.01.2020 07:00:00 12,6 10,7 18 10 NE 1023,6 20 0
14.01.2020 06:00:00 - - - - - - - -
14.01.2020 05:00:00 - - - - - - - -
14.01.2020 04:00:00 - - - - - - - -
14.01.2020 03:00:00 - - - - - - - -
14.01.2020 02:00:00 - - - - - - - -
14.01.2020 01:00:00 - - - - - - - -
14.01.2020 00:00:00 - - - - - - - -
13.01.2020 23:00:00 - - - - - - - -
13.01.2020 22:00:00 - - - - - - - -
13.01.2020 21:00:00 - - - - - - - -
13.01.2020 20:00:00 - - - - - - - -
13.01.2020 19:00:00 13,0 11,1 22 12 E 1023,0 20 -
13.01.2020 18:00:00 12,8 10,7 21 11 E 1022,3 20 -
13.01.2020 17:00:00 12,8 10,9 18 10 ENE 1022,2 25 0
13.01.2020 16:00:00 13,4 10,8 21 11 E 1022,0 25 0
13.01.2020 15:00:00 14,2 9,8 22 12 E 1022,0 25 12
13.01.2020 14:00:00 15,0 10,6 24 13 E 1022,2 25 24
13.01.2020 13:00:00 15,0 10,0 24 13 E 1023,2 25 48
13.01.2020 12:00:00 15,0 9,8 24 13 E 1023,2 25 60
13.01.2020 11:00:00 15,0 10,0 24 13 E 1023,2 25 60
13.01.2020 10:00:00 14,4 9,8 24 13 E 1023,2 25 60
13.01.2020 09:00:00 13,8 9,5 26 14 E 1023,1 25 24
13.01.2020 08:00:00 13,2 9,1 26 14 E 1023,1 25 0
13.01.2020 07:00:00 13,2 9,7 26 14 E 1023,2 20 0
13.01.2020 06:00:00 - - - - - - - -
13.01.2020 05:00:00 - - - - - - - -
13.01.2020 04:00:00 - - - - - - - -
13.01.2020 03:00:00 - - - - - - - -
13.01.2020 02:00:00 - - - - - - - -
13.01.2020 01:00:00 - - - - - - - -
13.01.2020 00:00:00 - - - - - - - -
12.01.2020 23:00:00 - - - - - - - -
12.01.2020 22:00:00 - - - - - - - -
12.01.2020 21:00:00 - - - - - - - -
12.01.2020 20:00:00 - - - - - - - -
12.01.2020 19:00:00 12,8 11,7 15 8 NNE 1023,3 15 -
12.01.2020 18:00:00 13,2 11,4 15 8 ENE 1023,2 25 -
12.01.2020 17:00:00 13,2 11,2 15 8 ENE 1022,9 25 0
12.01.2020 16:00:00 13,4 11,8 13 7 ENE 1022,9 25 0
12.01.2020 15:00:00 14,8 11,0 15 8 ENE 1022,7 25 0
12.01.2020 14:00:00 14,6 11,0 15 8 ENE 1022,9 25 42
12.01.2020 13:00:00 14,8 11,6 15 8 ENE 1023,2 25 42
12.01.2020 12:00:00 13,8 11,7 13 7 NE 1023,8 25 12
12.01.2020 11:00:00 15,0 11,0 16 9 NE 1023,5 25 24

tt = Temperatura
td = dewpoint
ff = velocità del vento
dd = direzione del vento
ppp = reduced air pressure
vv = visibility
sd = ore di luce

Stazioni seguenti

WeatherPro
AMSI
MeteoEarth